Location: Kansas State University
(39.1938°N, 96.5858°W)
Time: 06:57:26
(UTC-05:00)

Daily predictions for brighter satellites

Satellite Brightness Start Highest point End
(mag) Time Altitude Azimuth Time Altitude Azimuth Time Altitude Azimuth
ALOS 2.5 21:07:41 10° S 21:12:20 74° WSW 21:17:02 10° NNW
NOSS 8 (A) 4.4 21:11:49 10° SSW 21:15:21 68° ESE 21:18:57 10° NE
NOSS 2-2 (C) 3.5 21:12:35 10° SSW 21:16:35 62° ESE 21:21:08 10° NE
Coronas F rocket 1.5 21:15:04 10° S 21:17:37 47° E 21:20:12 10° NNE
Cosmos 2278 Rocket 3.6 21:14:01 10° SE 21:17:38 18° E 21:21:15 10° ENE
SPOT 5 4.2 21:18:09 10° ESE 21:22:33 28° ENE 21:27:02 10° N
ISS -1.4 21:21:21 10° SSE 21:22:49 12° SE 21:24:17 10° ESE
Cosmos 1825 4.1 21:21:38 10° ESE 21:23:38 14° E 21:25:38 10° NE
Envisat 3.6 21:20:45 10° SE 21:25:26 39° ENE 21:30:09 10° N
Cosmos 1844 Rocket 3.0 21:20:17 10° S 21:25:37 44° ESE 21:30:57 10° NE
Cosmos 1624 Rocket 4.0 21:20:57 10° S 21:26:11 71° ESE 21:31:28 10° NNE
ERBS 2.4 21:27:13 10° NW 21:30:41 68° NE 21:33:42 13° SE
Cosmos 1408 4.3 21:29:47 11° ESE 21:31:48 16° E 21:34:08 10° NE
deb Chang Zheng 4 4.0 21:27:49 10° NNE 21:32:02 43° E 21:36:15 10° S
Cosmos 1356 Rocket 3.5 21:30:31 10° S 21:34:43 85° W 21:39:02 10° N
NOSS 2-2 (E) 3.8 21:31:10 10° SW 21:35:17 76° NW 21:40:05 10° NNE
Cosmos 1733 Rocket 3.0 21:31:18 10° S 21:35:42 74° E 21:40:05 10° N
Cosmos 2082 Rocket 4.4 21:35:28 10° NNE 21:36:54 11° NE 21:38:21 10° ENE
H-2A R/B 4.3 21:37:22 10° ENE 21:37:55 10° ENE 21:38:28 10° NE
Meteor 2-3 Rocket 4.4 21:33:05 10° SSW 21:38:37 57° WNW 21:44:08 10° N
YAOGAN 11 4.3 21:34:57 10° S 21:39:27 80° WSW 21:44:02 10° NNW
Cosmos 2184 Rocket 4.0 21:33:43 10° S 21:39:51 86° E 21:46:04 10° N
SL-8 R/B 4.1 21:35:32 10° WSW 21:40:20 66° NNW 21:45:08 10° NE
PSLV R/B 3.3 21:37:31 10° WNW 21:40:57 73° SSW 21:43:37 16° ESE
Cosmos 2263 Rocket 4.4 21:36:39 10° WSW 21:41:33 30° WNW 21:46:28 10° N
GPS 2-05 Rocket1 4.2 21:38:41 10° SW 21:41:39 23° SSE 21:43:27 16° ESE
Cosmos 407 Rocket 3.9 21:39:03 10° N 21:44:12 50° ENE 21:48:30 15° SE
BREEZE-M DEB (TANK) 2.2 21:42:49 10° WNW 21:44:48 59° SW 21:47:09 16° SE
Cosmos 1340 Rocket 4.5 21:43:38 10° SW 21:47:19 37° WNW 21:51:05 10° N
Cosmos 2084 4.0 21:44:36 10° S 21:47:56 28° ESE 21:51:14 10° ENE
CZ-4 DEB 3.9 21:45:15 10° S 21:48:16 42° W 21:51:18 10° NNW
ERS-1 Rocket 3.1 21:43:28 10° SSE 21:48:29 83° WSW 21:53:33 10° NNW
Abrixas rocket 4.1 21:45:57 10° W 21:48:42 23° SW 21:51:11 11° S
Cosmos 1452 Rocket 3.8 21:45:14 10° S 21:50:11 44° ESE 21:55:11 10° NNE
Meteor 1-27 Rocket 4.0 21:45:19 10° N 21:50:42 49° ENE 21:55:04 15° SSE
Meteor 2-10 Rocket 4.1 21:45:44 10° NNW 21:51:31 69° W 21:57:07 10° S
USA 186 4.4 21:51:44 10° SW 21:53:57 19° W 21:56:18 10° NW
Nimbus 7 Rocket 4.4 21:49:39 10° NNE 21:55:34 67° ESE 22:01:31 10° S
Cosmos 1782 2.8 21:51:48 10° N 21:55:51 84° E 21:59:30 12° S
H-2A R/B 4.3 21:52:02 10° SW 21:56:25 38° SSE 22:18:02 10° ESE
Cosmos 1190 Rocket 3.9 21:51:41 10° NNW 21:56:54 82° ENE 22:01:14 15° SSE
Cosmos 1939 Rocket 2.8 21:55:37 11° S 21:59:17 79° WSW 22:03:12 10° NNW
Cosmos 1606 2.9 21:57:17 10° N 22:01:09 54° E 22:03:34 21° SSE
H-2A R/B 2.0 21:58:19 13° SSE 22:02:10 90° ENE 22:06:26 10° NNW
Atlas Centaur 2 2.5 22:03:14 10° SW 22:05:56 20° S 22:06:28 20° S
USA 234 3.9 22:04:05 10° ENE 22:09:43 30° SE 22:15:19 10° S
CZ-4B R/B 3.9 22:05:56 10° NNE 22:10:32 38° E 22:13:01 22° SSE
NOSS 5 (C) 4.1 22:13:13 10° SSW 22:16:45 82° SE 22:19:52 10° NE
Cosmos 1184 Rocket 2.9 22:18:32 38° SSE 22:19:26 51° E 22:22:42 10° NNE
BREEZE-M DEB (TANK) 4.4 22:22:28 10° NW 22:23:36 13° N 22:24:53 10° NNE
Okean 2 Rocket 3.2 22:22:51 28° SSE 22:24:54 53° E 22:29:12 10° NNE
Cosmos 676 Rocket 3.9 22:21:52 10° NNW 22:27:06 89° SW 22:30:02 27° SSE
Nadezhda 3 Rocket 4.1 22:23:29 10° N 22:29:52 84° W 22:34:48 18° S
MetOp-B 4.1 22:28:08 23° SSE 22:31:36 85° WSW 22:36:59 10° NNW
Cosmos 1174 2.9 22:29:07 10° NNW 22:32:20 89° E 22:32:40 68° SSE
CZ-4 SHROUD 3.3 22:32:14 45° SSW 22:33:00 68° W 22:36:06 10° NNW
Cosmos 1954 Rocket 3.9 22:28:03 10° NNW 22:33:17 80° ENE 22:35:45 32° SSE
CENTAUR R/B 4.2 22:31:12 10° NW 22:38:22 37° WSW 22:45:16 12° S
COS B Rocket 4.3 22:37:09 10° NNW 22:41:06 44° W 22:43:40 17° SSW
Cosmos 1741 Rocket 4.4 22:38:34 10° N 22:43:36 46° ENE 22:45:10 36° ESE
Cosmos 1782 Rocket 3.7 22:41:24 22° SSW 22:44:14 74° W 22:48:43 10° N
ARGOS 3.1 22:42:39 34° SSE 22:45:02 78° ENE 22:50:24 10° N
PSLV R/B 4.2 22:44:57 32° SW 22:45:30 36° W 22:48:16 10° NNW
ATLAS 5 CENTAUR R/B 3.8 22:42:56 10° NW 22:48:15 31° WSW 22:52:27 16° SSW
Cosmos 2341 Rocket 4.3 22:42:29 10° SSW 22:48:46 69° W 22:55:03 10° N
Landsat 7 4.2 22:48:20 41° ESE 22:49:26 49° ENE 22:54:02 10° N
COSMOS 2487 2.4 22:45:57 10° NNW 22:49:34 80° WSW 22:49:57 68° S
Okean 3 3.8 22:45:42 10° NNW 22:49:56 63° W 22:51:34 35° SSW
Meteor 1-14 Rocket 4.2 22:50:48 35° SSE 22:53:09 66° E 22:58:42 10° NNE
Elektron 3 4.1 22:51:16 10° NNW 22:54:15 74° NE 22:54:37 65° ESE
Meteor 2-13 Rocket 4.5 22:51:54 19° S 22:56:25 81° W 23:02:37 10° N
APEX 3.2 22:57:54 67° SSE 22:58:19 76° ESE 23:03:06 10° NNE
Cosmos 1238 Rocket 3.8 22:55:29 10° NNW 22:58:28 35° W 22:59:26 29° SW
ISS -2.9 22:55:39 10° WSW 22:58:52 62° NW 22:59:03 61° NNW
Cosmos 1825 3.8 22:56:12 15° SW 22:58:55 33° WNW 23:02:25 10° NNW
SPOT 5 4.3 22:56:49 17° SSW 23:00:23 36° W 23:05:19 10° NNW
DNEPR-1 R/B 3.8 22:55:24 10° NNW 23:00:45 66° NE 23:01:40 52° ESE
Cosmos 1975 Rocket 3.5 22:56:51 10° NNW 23:01:06 57° W 23:02:26 38° SSW
Cosmos 2278 Rocket 2.7 22:55:33 10° SW 23:01:08 60° WNW 23:06:46 10° NNE
CARTOSAT-1 4.0 23:01:47 45° E 23:01:59 45° ENE 23:06:07 10° N
Timation 2 Rocket 3.8 22:56:49 10° NNW 23:02:49 79° ENE 23:04:45 45° SE
Intercosmos 25 3.5 23:02:10 44° SW 23:03:01 58° W 23:06:11 10° N
Cosmos 1023 Rocket 4.4 22:58:58 10° NNW 23:04:05 81° WSW 23:05:28 49° S
YAOGAN 6 4.0 23:03:52 26° SW 23:04:43 29° W 23:07:50 10° NW
Cosmos 1833 Rocket 3.4 22:59:42 10° N 23:04:56 39° ENE 23:06:17 34° E
Terra 2.1 23:04:36 47° E 23:05:11 50° ENE 23:09:47 10° N
Spot 4 4.4 23:08:31 40° E 23:08:58 41° ENE 23:13:32 10° N
SL-8 Rocket 4.0 23:06:03 27° SSW 23:09:44 80° W 23:16:01 10° N
Cosmos 1536 Rocket 3.7 23:09:30 10° N 23:13:54 58° ENE 23:13:54 58° ENE
H-2A R/B 2.1 23:15:18 56° SSE 23:16:27 78° ENE 23:21:48 10° N
Cosmos 1812 4.0 23:13:03 10° N 23:15:44 31° NE 23:15:44 31° NE
Cosmos 1242 Rocket 3.5 23:14:36 10° NNW 23:18:04 41° W 23:18:10 41° W
ASTEX 1 4.0 23:14:22 10° NNE 23:18:38 40° ENE 23:18:38 40° ENE
Cosmos 2082 Rocket 2.2 23:16:25 10° NNW 23:22:07 68° ENE 23:23:06 57° ESE
Timation 1 Rocket 4.5 23:22:04 50° ESE 23:22:12 50° ESE 23:27:59 10° NE
Meteor 2-8 Rocket 4.4 23:18:14 10° N 23:24:25 77° E 23:25:49 55° SSE
CZ-4C R/B 3.5 23:25:01 65° WNW 23:25:01 65° WNW 23:28:44 10° NNW
Cosmos 2151 Rocket 3.8 23:29:56 60° WSW 23:30:25 65° W 23:34:57 10° N
Cosmos 614 Rocket 3.9 23:26:49 10° NNW 23:31:53 69° WSW 23:32:23 64° SW
Cosmos 2297 4.0 23:30:37 26° SW 23:33:53 65° WNW 23:39:35 10° NNE
Cosmos 1140 Rocket 4.4 23:32:36 10° NW 23:37:20 38° WSW 23:38:19 35° SW
CZ-3 Stage 3 4.2 22:46:35 10° W 23:43:01 55° SSW 23:45:24 45° SSE
USA 234 3.4 23:46:30 10° NE 23:53:00 71° NW 23:59:29 10° WSW
